STARLINK-32469, 61721

Orbit data source: Space-Track

STARLINK-32469, 61721 is a payload satellite owned by SpaceX/Seattle (US) in LEO that was launched on Wed, 30 Oct 2024 UTC via an FALCON 9 launch vehicle from the Air Force Eastern Test Range (AFETR). Payload-class satellites include a variety of spacecraft equipped with specific instruments for various scientific and technological missions. These include communications satellites like Starlink; space stations such as the ISS; scientific satellites like the Hubble; Earth observation satellites from companies like Planet Labs, Umbra, and HawkEye 360; GPS; miniature CubeSats for education and research; and military/defense satellites.

Loading next visibility...
Identifier
61721, 2024-196Q
Orbit
LEO
Country
Flag of USUS
Related business
Manufacturer
SpaceX/Seattle
Mission
Operational Commercial Communications
Bus & Motor
STARLINK V2M, Unknown motor
Mass
730 kg wet, ~700 kg dry
Launch date (UTC)
2024-10-30 (11 months ago)
Launch vehicle
FALCON 9
Launch site
Air Force Eastern Test Range (AFETR)
Object type
Payload
Rocket body
Debris
Shape & HBR
Box + 2 Pan, 14.5 m
Radar Cross Section
36.964 m², Large (>1 m²)

Expand to show TLE details & history
Last TLE update: 9 hours ago

TLE from 9 hours ago
0 STARLINK-32469
1 61721U 24196Q   25258.54182675  .00018821  00000-0  64656-3 0  9999
2 61721  53.1563 194.6700 0001715  79.5759 280.5435 15.30169294 50344
Epoch: 2025-09-15T13:00Z
TLE epoch observation values (Epoch: 2025-09-15T13:00:13.831Z)
Latitude
-0°
Longitude
4.86738°
Altitude
475.991 km
Speed
7.629 km/s
True Right ascension
12h 58m 40s
True Declination
0° 00' 00"
Sunlit
Object was in daylight at epoch
Visualization orbit readout
Latitude
Unknown
Longitude
Unknown
Altitude
Unknown
Speed
Unknown
Apparent Right ascension
Unknown
Apparent Declination
Unknown
Sunlit
N/A
Visualization observer readout
Local Sidereal Time
14:29:42
Azimuth
Unknown
Elevation
Unknown
Doppler factor
Unknown
Orbital elements
Apogee altitude
476.739 km
Perigee altitude
474.388 km
Semi-major axis
6,853.701 km
Eccentricity
0.00017
Inclination
53.1563°
RAAN
194.67°
Arg. of periapsis
79.5759°
True anomaly
280.52418°
Mean anomaly
280.5435°
Eccentric anomaly
280.53384°
Mean motion
3.82521 °/min
Orbital period
94.11 mins
BSTAR
0.00064656
Loading maneuver chart data...
Computing Atmospheric mass density...
Loading historical data...
Loading historical data...
Loading historical data...
Loading historical data...
Loading historical data...
Loading historical data...
Loading historical data...

Documentation

Showing up to 5 results
|